Time,TemperatureF,DewpointF,PressureIn,WindDirection,WindDirectionDegrees,WindSpeedMPH,WindSpeedGustMPH,Humidity,HourlyPrecipIn,Conditions,Clouds,dailyrainin,SoftwareType,DateUTC
2013-08-20 08:49:00,71.1,66.0,30.07,NNW,338,2.9,2.9,84,0.00,,,0.00,WUHU216HW,2013-08-20 12:49:00,
2013-08-20 08:50:00,71.1,66.0,30.07,WSW,248,4.0,4.0,84,0.00,,,0.00,WUHU216HW,2013-08-20 12:50:00,
2013-08-20 08:55:00,71.3,65.8,30.07,NW,315,1.8,5.6,83,0.00,,,0.00,WUHU216HW,2013-08-20 12:55:00,
2013-08-20 09:00:00,71.6,66.2,30.07,NW,315,2.9,5.6,83,0.00,,,0.00,WUHU216HW,2013-08-20 13:00:00,
2013-08-20 09:05:00,71.8,66.3,30.07,West,270,3.1,4.3,83,0.00,,,0.00,WUHU216HW,2013-08-20 13:05:00,
2013-08-20 09:10:00,72.4,66.9,30.07,NNW,338,3.6,3.6,83,0.00,,,0.00,WUHU216HW,2013-08-20 13:10:00,
2013-08-20 09:15:00,73.1,67.6,30.07,WSW,248,3.6,4.0,83,0.00,,,0.00,WUHU216HW,2013-08-20 13:15:00,
2013-08-20 09:20:00,73.8,68.1,30.07,NW,315,3.4,4.7,82,0.00,,,0.00,WUHU216HW,2013-08-20 13:20:00,
2013-08-20 09:25:00,74.3,68.2,30.07,West,270,2.2,4.7,81,0.00,,,0.00,WUHU216HW,2013-08-20 13:25:00,
2013-08-20 09:30:00,74.9,68.4,30.08,West,270,3.8,4.7,80,0.00,,,0.00,WUHU216HW,2013-08-20 13:30:00,
2013-08-20 09:35:00,75.2,68.4,30.08,WSW,248,2.0,4.7,79,0.00,,,0.00,WUHU216HW,2013-08-20 13:35:00,
2013-08-20 09:40:00,75.8,68.5,30.08,NW,315,0.4,4.9,78,0.00,,,0.00,WUHU216HW,2013-08-20 13:40:00,
2013-08-20 09:45:00,76.3,68.6,30.08,NW,315,2.5,4.9,77,0.00,,,0.00,WUHU216HW,2013-08-20 13:45:00,
2013-08-20 09:50:00,76.7,69.0,30.08,NW,315,4.5,4.5,77,0.00,,,0.00,WUHU216HW,2013-08-20 13:50:00,
2013-08-20 09:55:00,77.0,68.5,30.08,WSW,248,2.0,4.5,75,0.00,,,0.00,WUHU216HW,2013-08-20 13:55:00,
2013-08-20 10:00:00,77.4,68.9,30.08,WNW,293,3.6,3.6,75,0.01,,,0.01,WUHU216HW,2013-08-20 14:00:00,
2013-08-20 10:05:00,77.8,68.8,30.08,SSW,203,0.0,3.6,74,0.01,,,0.01,WUHU216HW,2013-08-20 14:05:00,
2013-08-20 10:10:00,78.1,69.1,30.08,NW,315,4.0,4.0,74,0.01,,,0.01,WUHU216HW,2013-08-20 14:10:00,
2013-08-20 10:15:00,78.5,69.0,30.09,NW,315,4.7,6.3,73,0.01,,,0.01,WUHU216HW,2013-08-20 14:15:00,
2013-08-20 10:20:00,78.7,69.2,30.09,WNW,293,1.1,6.3,73,0.01,,,0.01,WUHU216HW,2013-08-20 14:20:00,
2013-08-20 10:25:00,78.8,69.0,30.09,SSW,203,1.1,2.5,72,0.01,,,0.01,WUHU216HW,2013-08-20 14:25:00,
2013-08-20 10:30:00,79.2,69.4,30.09,NW,315,2.9,3.6,72,0.01,,,0.01,WUHU216HW,2013-08-20 14:30:00,
2013-08-20 10:35:00,79.2,68.6,30.09,NE,45,0.7,3.6,70,0.01,,,0.01,WUHU216HW,2013-08-20 14:35:00,
2013-08-20 10:40:00,79.6,69.3,30.09,SE,135,1.6,3.1,71,0.01,,,0.01,WUHU216HW,2013-08-20 14:40:00,
2013-08-20 10:45:00,79.7,69.1,30.09,South,180,0.4,1.8,70,0.01,,,0.01,WUHU216HW,2013-08-20 14:45:00,
2013-08-20 10:50:00,79.9,69.3,30.09,NNW,338,0.4,2.9,70,0.01,,,0.01,WUHU216HW,2013-08-20 14:50:00,
2013-08-20 10:55:00,80.1,69.0,30.09,NE,45,3.1,3.1,69,0.01,,,0.01,WUHU216HW,2013-08-20 14:55:00,
2013-08-20 11:00:00,80.5,68.5,30.09,NE,45,5.6,5.6,67,0.00,,,0.01,WUHU216HW,2013-08-20 15:00:00,
2013-08-20 11:05:00,80.5,68.5,30.09,SE,135,1.8,5.6,67,0.00,,,0.01,WUHU216HW,2013-08-20 15:05:00,
2013-08-20 11:10:00,80.8,68.9,30.09,SSE,158,0.9,1.8,67,0.00,,,0.01,WUHU216HW,2013-08-20 15:10:00,
2013-08-20 11:15:00,81.0,68.1,30.09,SSW,203,1.3,2.7,65,0.00,,,0.01,WUHU216HW,2013-08-20 15:15:00,
2013-08-20 11:20:00,81.0,68.6,30.09,SE,135,1.1,2.7,66,0.00,,,0.01,WUHU216HW,2013-08-20 15:20:00,
2013-08-20 11:25:00,81.0,68.6,30.09,SSE,158,2.5,3.4,66,0.00,,,0.01,WUHU216HW,2013-08-20 15:25:00,
2013-08-20 11:30:00,81.4,68.9,30.09,NE,45,2.5,3.4,66,0.00,,,0.01,WUHU216HW,2013-08-20 15:30:00,
2013-08-20 11:35:00,81.4,68.0,30.09,ENE,68,1.3,2.9,64,0.00,,,0.01,WUHU216HW,2013-08-20 15:35:00,
2013-08-20 11:40:00,81.5,68.6,30.09,South,180,4.7,4.7,65,0.00,,,0.01,WUHU216HW,2013-08-20 15:40:00,
2013-08-20 11:45:00,81.9,69.4,30.09,SE,135,2.0,4.7,66,0.00,,,0.01,WUHU216HW,2013-08-20 15:45:00,
2013-08-20 11:50:00,82.3,69.7,30.09,SSE,158,2.2,3.6,66,0.00,,,0.01,WUHU216HW,2013-08-20 15:50:00,
2013-08-20 11:55:00,82.4,69.4,30.09,SSE,158,2.7,3.4,65,0.00,,,0.01,WUHU216HW,2013-08-20 15:55:00,
2013-08-20 12:00:00,82.8,70.2,30.09,SSE,158,2.0,3.4,66,0.00,,,0.01,WUHU216HW,2013-08-20 16:00:00,
2013-08-20 12:05:00,83.0,69.9,30.09,SE,135,2.2,3.1,65,0.00,,,0.01,WUHU216HW,2013-08-20 16:05:00,
2013-08-20 12:10:00,82.8,68.0,30.09,ENE,68,2.5,3.1,61,0.00,,,0.01,WUHU216HW,2013-08-20 16:10:00,
2013-08-20 12:15:00,83.0,68.6,30.09,SSE,158,4.0,4.0,62,0.00,,,0.01,WUHU216HW,2013-08-20 16:15:00,
2013-08-20 12:20:00,83.0,69.5,30.08,SSE,158,1.3,4.0,64,0.00,,,0.01,WUHU216HW,2013-08-20 16:20:00,
2013-08-20 12:25:00,83.2,69.2,30.08,SSE,158,2.7,4.0,63,0.00,,,0.01,WUHU216HW,2013-08-20 16:25:00,
2013-08-20 12:30:00,83.2,68.8,30.08,SE,135,1.8,3.4,62,0.00,,,0.01,WUHU216HW,2013-08-20 16:30:00,
2013-08-20 12:35:00,83.2,68.8,30.08,SSE,158,2.0,3.4,62,0.00,,,0.01,WUHU216HW,2013-08-20 16:35:00,
2013-08-20 12:40:00,83.2,66.8,30.08,SE,135,3.6,4.3,58,0.00,,,0.01,WUHU216HW,2013-08-20 16:40:00,
2013-08-20 12:45:00,83.2,68.3,30.08,SSE,158,3.4,4.3,61,0.00,,,0.01,WUHU216HW,2013-08-20 16:45:00,
2013-08-20 12:50:00,83.3,66.5,30.08,SE,135,1.3,4.0,57,0.00,,,0.01,WUHU216HW,2013-08-20 16:50:00,
2013-08-20 12:55:00,83.2,66.8,30.08,South,180,2.5,3.8,58,0.00,,,0.01,WUHU216HW,2013-08-20 16:55:00,
2013-08-20 13:00:00,83.3,68.5,30.08,South,180,2.9,3.6,61,0.00,,,0.01,WUHU216HW,2013-08-20 17:00:00,
2013-08-20 13:05:00,83.3,67.5,30.08,South,180,4.7,4.7,59,0.00,,,0.01,WUHU216HW,2013-08-20 17:05:00,
2013-08-20 13:10:00,83.5,68.7,30.08,SE,135,3.4,4.7,61,0.00,,,0.01,WUHU216HW,2013-08-20 17:10:00,
2013-08-20 13:15:00,83.7,68.9,30.08,SSE,158,2.9,3.8,61,0.00,,,0.01,WUHU216HW,2013-08-20 17:15:00,
2013-08-20 13:20:00,83.5,68.2,30.08,East,90,4.0,4.0,60,0.00,,,0.01,WUHU216HW,2013-08-20 17:20:00,
2013-08-20 13:25:00,83.2,65.8,30.08,ESE,113,3.6,4.0,56,0.00,,,0.01,WUHU216HW,2013-08-20 17:25:00,
2013-08-20 13:30:00,83.0,67.1,30.08,South,180,4.0,4.9,59,0.00,,,0.01,WUHU216HW,2013-08-20 17:30:00,
2013-08-20 13:35:00,83.2,66.3,30.08,East,90,2.5,4.9,57,0.00,,,0.01,WUHU216HW,2013-08-20 17:35:00,
2013-08-20 13:40:00,83.2,66.8,30.08,SE,135,1.8,4.0,58,0.00,,,0.01,WUHU216HW,2013-08-20 17:40:00,
2013-08-20 13:45:00,83.2,66.8,30.07,SSE,158,1.1,3.4,58,0.00,,,0.01,WUHU216HW,2013-08-20 17:45:00,
2013-08-20 13:50:00,83.0,66.2,30.07,ESE,113,0.9,3.4,57,0.00,,,0.01,WUHU216HW,2013-08-20 17:50:00,
2013-08-20 13:55:00,83.2,67.3,30.07,SSE,158,3.6,3.6,59,0.00,,,0.01,WUHU216HW,2013-08-20 17:55:00,
2013-08-20 14:00:00,83.2,67.3,30.07,South,180,6.7,6.7,59,0.00,,,0.01,WUHU216HW,2013-08-20 18:00:00,
2013-08-20 14:05:00,83.2,67.3,30.07,SE,135,1.8,6.7,59,0.00,,,0.01,WUHU216HW,2013-08-20 18:05:00,
2013-08-20 14:10:00,83.2,68.3,30.07,SSE,158,3.4,4.7,61,0.00,,,0.01,WUHU216HW,2013-08-20 18:10:00,
2013-08-20 14:15:00,83.2,68.3,30.07,SSE,158,2.2,4.7,61,0.00,,,0.01,WUHU216HW,2013-08-20 18:15:00,
2013-08-20 14:20:00,83.3,68.9,30.07,SSE,158,2.5,4.7,62,0.00,,,0.01,WUHU216HW,2013-08-20 18:20:00,
2013-08-20 14:25:00,83.3,68.9,30.07,SE,135,3.4,4.7,62,0.00,,,0.01,WUHU216HW,2013-08-20 18:25:00,
2013-08-20 14:30:00,83.5,69.6,30.06,SSE,158,1.1,4.7,63,0.00,,,0.01,WUHU216HW,2013-08-20 18:30:00,
2013-08-20 14:35:00,83.5,69.6,30.06,South,180,1.6,7.6,63,0.00,,,0.01,WUHU216HW,2013-08-20 18:35:00,
2013-08-20 14:40:00,83.5,69.6,30.06,SE,135,3.4,7.6,63,0.00,,,0.01,WUHU216HW,2013-08-20 18:40:00,
2013-08-20 14:45:00,83.3,69.4,30.06,SSE,158,2.9,4.7,63,0.00,,,0.01,WUHU216HW,2013-08-20 18:45:00,
2013-08-20 14:50:00,83.5,69.6,30.06,SSW,203,1.1,4.7,63,0.00,,,0.01,WUHU216HW,2013-08-20 18:50:00,
2013-08-20 14:55:00,83.5,69.6,30.06,SSE,158,4.3,4.7,63,0.00,,,0.01,WUHU216HW,2013-08-20 18:55:00,
2013-08-20 15:00:00,83.5,69.6,30.06,SE,135,2.5,6.5,63,0.00,,,0.01,WUHU216HW,2013-08-20 19:00:00,
2013-08-20 15:05:00,83.3,69.8,30.06,South,180,5.1,6.5,64,0.00,,,0.01,WUHU216HW,2013-08-20 19:05:00,
2013-08-20 15:10:00,83.2,69.7,30.06,SSE,158,5.6,6.5,64,0.00,,,0.01,WUHU216HW,2013-08-20 19:10:00,
2013-08-20 15:15:00,83.2,70.1,30.06,SSE,158,4.9,5.6,65,0.00,,,0.01,WUHU216HW,2013-08-20 19:15:00,
2013-08-20 15:20:00,83.2,70.1,30.06,SSE,158,2.9,6.0,65,0.00,,,0.01,WUHU216HW,2013-08-20 19:20:00,
2013-08-20 15:25:00,83.3,70.3,30.06,South,180,5.1,6.0,65,0.00,,,0.01,WUHU216HW,2013-08-20 19:25:00,
2013-08-20 15:30:00,83.3,70.3,30.05,SE,135,3.8,5.1,65,0.00,,,0.01,WUHU216HW,2013-08-20 19:30:00,
2013-08-20 15:35:00,83.3,69.8,30.05,SSE,158,3.4,4.3,64,0.00,,,0.01,WUHU216HW,2013-08-20 19:35:00,
2013-08-20 15:40:00,83.3,70.3,30.05,SSE,158,4.5,4.5,65,0.00,,,0.01,WUHU216HW,2013-08-20 19:40:00,
2013-08-20 15:45:00,83.3,69.8,30.05,SSW,203,3.4,5.1,64,0.00,,,0.01,WUHU216HW,2013-08-20 19:45:00,
2013-08-20 15:50:00,83.3,69.8,30.05,South,180,0.9,5.1,64,0.00,,,0.01,WUHU216HW,2013-08-20 19:50:00,
2013-08-20 15:55:00,83.3,70.3,30.05,SSE,158,6.3,6.3,65,0.00,,,0.01,WUHU216HW,2013-08-20 19:55:00,
2013-08-20 16:00:00,83.3,70.3,30.05,SE,135,4.0,6.3,65,0.00,,,0.01,WUHU216HW,2013-08-20 20:00:00,
2013-08-20 16:05:00,83.3,70.3,30.05,SSE,158,1.8,4.5,65,0.00,,,0.01,WUHU216HW,2013-08-20 20:05:00,
2013-08-20 16:10:00,83.3,70.3,30.05,SSE,158,3.8,4.5,65,0.00,,,0.01,WUHU216HW,2013-08-20 20:10:00,
2013-08-20 16:15:00,83.3,69.8,30.05,SSE,158,2.5,3.8,64,0.00,,,0.01,WUHU216HW,2013-08-20 20:15:00,
2013-08-20 16:20:00,83.2,70.1,30.05,SSE,158,2.5,3.8,65,0.00,,,0.01,WUHU216HW,2013-08-20 20:20:00,
2013-08-20 16:25:00,83.2,70.1,30.05,East,90,2.0,4.3,65,0.00,,,0.01,WUHU216HW,2013-08-20 20:25:00,
2013-08-20 16:30:00,83.3,70.3,30.05,SSE,158,4.0,5.1,65,0.00,,,0.01,WUHU216HW,2013-08-20 20:30:00,
2013-08-20 16:35:00,83.2,70.1,30.05,SSE,158,2.5,5.1,65,0.00,,,0.01,WUHU216HW,2013-08-20 20:35:00,
2013-08-20 16:40:00,83.2,70.1,30.05,South,180,5.8,5.8,65,0.00,,,0.01,WUHU216HW,2013-08-20 20:40:00,
2013-08-20 16:45:00,83.0,69.9,30.05,SSE,158,3.4,5.8,65,0.00,,,0.01,WUHU216HW,2013-08-20 20:45:00,
2013-08-20 16:50:00,82.8,70.2,30.05,South,180,3.1,7.6,66,0.00,,,0.01,WUHU216HW,2013-08-20 20:50:00,
2013-08-20 16:55:00,82.4,69.4,30.05,SSE,158,5.1,7.6,65,0.00,,,0.01,WUHU216HW,2013-08-20 20:55:00,
2013-08-20 17:00:00,82.3,69.7,30.05,South,180,1.8,5.8,66,0.00,,,0.01,WUHU216HW,2013-08-20 21:00:00,
2013-08-20 17:05:00,82.1,69.5,30.05,SSE,158,2.5,5.6,66,0.00,,,0.01,WUHU216HW,2013-08-20 21:05:00,
2013-08-20 17:10:00,82.1,69.5,30.05,South,180,2.2,5.6,66,0.00,,,0.01,WUHU216HW,2013-08-20 21:10:00,
2013-08-20 17:15:00,81.9,69.4,30.05,SSE,158,1.1,2.9,66,0.00,,,0.01,WUHU216HW,2013-08-20 21:15:00,
2013-08-20 17:20:00,81.9,69.4,30.05,South,180,2.5,5.4,66,0.00,,,0.01,WUHU216HW,2013-08-20 21:20:00,
2013-08-20 17:25:00,81.9,69.4,30.05,SSE,158,1.8,5.4,66,0.00,,,0.01,WUHU216HW,2013-08-20 21:25:00,
2013-08-20 17:30:00,81.7,69.2,30.05,SSE,158,1.8,3.8,66,0.00,,,0.01,WUHU216HW,2013-08-20 21:30:00,
2013-08-20 17:35:00,81.7,69.7,30.05,SSW,203,4.0,4.0,67,0.00,,,0.01,WUHU216HW,2013-08-20 21:35:00,
2013-08-20 17:40:00,81.4,69.8,30.05,SSE,158,2.2,4.0,68,0.00,,,0.01,WUHU216HW,2013-08-20 21:40:00,
2013-08-20 17:45:00,81.4,69.8,30.05,SE,135,5.4,6.3,68,0.00,,,0.01,WUHU216HW,2013-08-20 21:45:00,
2013-08-20 17:50:00,81.0,69.0,30.05,South,180,2.0,6.3,67,0.00,,,0.01,WUHU216HW,2013-08-20 21:50:00,
2013-08-20 17:55:00,81.0,69.0,30.05,ESE,113,2.7,6.3,67,0.00,,,0.01,WUHU216HW,2013-08-20 21:55:00,
2013-08-20 18:00:00,81.0,69.0,30.05,SE,135,2.9,4.7,67,0.00,,,0.01,WUHU216HW,2013-08-20 22:00:00,
2013-08-20 18:05:00,81.0,69.0,30.04,SSE,158,1.8,4.7,67,0.00,,,0.01,WUHU216HW,2013-08-20 22:05:00,
2013-08-20 18:10:00,81.0,69.0,30.04,SSE,158,4.0,6.3,67,0.00,,,0.01,WUHU216HW,2013-08-20 22:10:00,
2013-08-20 18:15:00,80.8,69.3,30.05,SSE,158,6.3,6.3,68,0.00,,,0.01,WUHU216HW,2013-08-20 22:15:00,
2013-08-20 18:20:00,80.6,69.1,30.05,SSE,158,1.8,6.3,68,0.00,,,0.01,WUHU216HW,2013-08-20 22:20:00,
2013-08-20 18:25:00,80.5,68.9,30.05,SE,135,2.2,4.7,68,0.00,,,0.01,WUHU216HW,2013-08-20 22:25:00,
2013-08-20 18:30:00,80.6,69.1,30.05,SE,135,2.5,4.3,68,0.00,,,0.01,WUHU216HW,2013-08-20 22:30:00,
2013-08-20 18:35:00,80.3,68.8,30.04,SSE,158,3.4,5.6,68,0.00,,,0.01,WUHU216HW,2013-08-20 22:35:00,
2013-08-20 18:40:00,80.3,69.2,30.04,SSE,158,3.8,5.6,69,0.00,,,0.01,WUHU216HW,2013-08-20 22:40:00,
2013-08-20 18:45:00,80.3,69.2,30.05,SSE,158,1.8,4.0,69,0.00,,,0.01,WUHU216HW,2013-08-20 22:45:00,
2013-08-20 18:50:00,79.9,68.9,30.05,SSE,158,2.2,8.5,69,0.00,,,0.01,WUHU216HW,2013-08-20 22:50:00,
2013-08-20 18:55:00,79.9,69.3,30.05,SSE,158,4.0,8.5,70,0.00,,,0.01,WUHU216HW,2013-08-20 22:55:00,
2013-08-20 19:00:00,79.6,68.9,30.05,SSE,158,3.4,5.8,70,0.00,,,0.01,WUHU216HW,2013-08-20 23:00:00,
2013-08-20 19:05:00,79.6,68.9,30.05,SSE,158,1.6,5.8,70,0.00,,,0.01,WUHU216HW,2013-08-20 23:05:00,
2013-08-20 19:10:00,79.4,68.8,30.05,SSE,158,2.5,4.3,70,0.00,,,0.01,WUHU216HW,2013-08-20 23:10:00,
2013-08-20 19:15:00,79.2,68.9,30.05,SSE,158,5.4,5.4,71,0.00,,,0.01,WUHU216HW,2013-08-20 23:15:00,
2013-08-20 19:20:00,79.0,68.8,30.05,SSE,158,4.5,5.4,71,0.00,,,0.01,WUHU216HW,2013-08-20 23:20:00,
2013-08-20 19:25:00,78.8,68.6,30.05,SE,135,5.4,5.4,71,0.00,,,0.01,WUHU216HW,2013-08-20 23:25:00,
2013-08-20 19:30:00,78.7,68.5,30.05,SE,135,1.6,5.4,71,0.00,,,0.01,WUHU216HW,2013-08-20 23:30:00,
2013-08-20 19:35:00,78.5,68.3,30.05,SSE,158,3.4,4.5,71,0.00,,,0.01,WUHU216HW,2013-08-20 23:35:00,
2013-08-20 19:40:00,78.3,68.1,30.05,SSE,158,3.8,4.5,71,0.00,,,0.01,WUHU216HW,2013-08-20 23:40:00,
2013-08-20 19:45:00,78.1,68.3,30.05,SSE,158,1.3,4.0,72,0.00,,,0.01,WUHU216HW,2013-08-20 23:45:00,
2013-08-20 19:50:00,78.1,68.3,30.05,SSE,158,3.1,3.1,72,0.00,,,0.01,WUHU216HW,2013-08-20 23:50:00,
2013-08-20 19:55:00,77.9,68.6,30.05,SSW,203,1.8,5.1,73,0.00,,,0.01,WUHU216HW,2013-08-20 23:55:00,
2013-08-20 20:00:00,77.8,68.4,30.05,SSE,158,1.8,5.1,73,0.00,,,0.01,WUHU216HW,2013-08-21 00:00:00,
2013-08-20 20:05:00,77.6,68.6,30.05,South,180,1.8,4.0,74,0.00,,,0.01,WUHU216HW,2013-08-21 00:05:00,
2013-08-20 20:10:00,77.4,68.5,30.06,SSE,158,2.2,3.4,74,0.00,,,0.01,WUHU216HW,2013-08-21 00:10:00,
2013-08-20 20:15:00,77.4,68.9,30.06,SSE,158,0.9,3.4,75,0.00,,,0.01,WUHU216HW,2013-08-21 00:15:00,
2013-08-20 20:20:00,77.4,68.9,30.06,SSE,158,2.7,2.9,75,0.00,,,0.01,WUHU216HW,2013-08-21 00:20:00,
2013-08-20 20:25:00,77.2,68.7,30.06,SSE,158,1.8,2.9,75,0.00,,,0.01,WUHU216HW,2013-08-21 00:25:00,
2013-08-20 20:30:00,77.2,69.0,30.06,SW,225,0.7,1.8,76,0.00,,,0.01,WUHU216HW,2013-08-21 00:30:00,
2013-08-20 20:35:00,77.0,68.9,30.06,SSE,158,1.1,2.5,76,0.00,,,0.01,WUHU216HW,2013-08-21 00:35:00,
2013-08-20 20:40:00,76.9,68.7,30.06,SSE,158,1.6,3.4,76,0.00,,,0.01,WUHU216HW,2013-08-21 00:40:00,
2013-08-20 20:45:00,76.9,69.1,30.06,SSE,158,1.1,4.0,77,0.00,,,0.01,WUHU216HW,2013-08-21 00:45:00,
2013-08-20 20:50:00,76.7,69.0,30.07,SW,225,1.1,4.0,77,0.00,,,0.01,WUHU216HW,2013-08-21 00:50:00,
2013-08-20 20:55:00,76.7,69.3,30.07,SSE,158,1.1,3.1,78,0.00,,,0.01,WUHU216HW,2013-08-21 00:55:00,
2013-08-20 21:00:00,76.5,69.1,30.07,SSE,158,1.8,3.8,78,0.00,,,0.01,WUHU216HW,2013-08-21 01:00:00,
2013-08-20 21:05:00,76.3,68.9,30.07,SE,135,2.2,3.8,78,0.00,,,0.01,WUHU216HW,2013-08-21 01:05:00,
2013-08-20 21:10:00,76.3,68.9,30.07,SSE,158,1.8,2.7,78,0.00,,,0.01,WUHU216HW,2013-08-21 01:10:00,
2013-08-20 21:15:00,76.3,68.9,30.07,SE,135,1.6,3.4,78,0.00,,,0.01,WUHU216HW,2013-08-21 01:15:00,
2013-08-20 21:19:00,76.1,68.8,30.08,SSE,158,1.6,3.4,78,0.00,,,0.01,WUHU216HW,2013-08-21 01:19:00,
2013-08-20 21:24:00,76.1,68.8,30.08,SSE,158,0.9,2.5,78,0.00,,,0.01,WUHU216HW,2013-08-21 01:24:00,
2013-08-20 21:29:00,76.1,68.8,30.08,SE,135,1.1,1.6,78,0.00,,,0.01,WUHU216HW,2013-08-21 01:29:00,
2013-08-20 21:34:00,76.0,68.7,30.08,SSE,158,2.7,2.7,78,0.00,,,0.01,WUHU216HW,2013-08-21 01:34:00,
2013-08-20 21:39:00,76.0,68.7,30.08,SSE,158,0.4,2.7,78,0.00,,,0.01,WUHU216HW,2013-08-21 01:39:00,
2013-08-20 21:44:00,76.0,68.7,30.08,South,180,0.7,1.3,78,0.00,,,0.01,WUHU216HW,2013-08-21 01:44:00,
2013-08-20 21:49:00,75.8,68.9,30.08,SE,135,0.7,1.3,79,0.00,,,0.01,WUHU216HW,2013-08-21 01:49:00,
2013-08-20 21:54:00,75.8,68.9,30.09,SW,225,1.1,1.1,79,0.00,,,0.01,WUHU216HW,2013-08-21 01:54:00,
2013-08-20 21:59:00,75.6,68.7,30.08,SSE,158,0.9,1.8,79,0.00,,,0.01,WUHU216HW,2013-08-21 01:59:00,
2013-08-20 22:04:00,75.6,68.7,30.08,SSE,158,0.4,1.8,79,0.00,,,0.01,WUHU216HW,2013-08-21 02:04:00,
2013-08-20 22:09:00,75.6,68.7,30.08,SW,225,1.1,1.1,79,0.00,,,0.01,WUHU216HW,2013-08-21 02:09:00,
2013-08-20 22:14:00,75.4,68.5,30.09,SW,225,0.0,1.1,79,0.00,,,0.01,WUHU216HW,2013-08-21 02:14:00,
2013-08-20 22:19:00,75.4,68.5,30.08,SSW,203,1.1,1.1,79,0.00,,,0.01,WUHU216HW,2013-08-21 02:19:00,
2013-08-20 22:24:00,75.2,68.8,30.09,SSE,158,0.7,1.3,80,0.00,,,0.01,WUHU216HW,2013-08-21 02:24:00,
2013-08-20 22:29:00,75.2,68.8,30.08,SSE,158,1.8,1.8,80,0.00,,,0.01,WUHU216HW,2013-08-21 02:29:00,
2013-08-20 22:34:00,75.2,68.8,30.09,WSW,248,0.9,1.8,80,0.00,,,0.01,WUHU216HW,2013-08-21 02:34:00,
2013-08-20 22:39:00,75.2,68.8,30.09,SSE,158,0.2,1.8,80,0.00,,,0.01,WUHU216HW,2013-08-21 02:39:00,
2013-08-20 22:44:00,75.2,68.8,30.09,SSE,158,0.2,0.9,80,0.00,,,0.01,WUHU216HW,2013-08-21 02:44:00,
2013-08-20 22:49:00,75.1,68.6,30.09,West,270,0.0,1.1,80,0.00,,,0.01,WUHU216HW,2013-08-21 02:49:00,
2013-08-20 22:54:00,75.1,68.6,30.09,SW,225,1.8,1.8,80,0.00,,,0.01,WUHU216HW,2013-08-21 02:54:00,
2013-08-20 22:59:00,75.1,68.6,30.09,SSE,158,0.7,2.5,80,0.00,,,0.01,WUHU216HW,2013-08-21 02:59:00,
2013-08-20 23:04:00,74.9,68.4,30.09,SSE,158,1.6,2.5,80,0.00,,,0.01,WUHU216HW,2013-08-21 03:04:00,
2013-08-20 23:09:00,74.9,68.4,30.09,WSW,248,1.1,1.6,80,0.00,,,0.01,WUHU216HW,2013-08-21 03:09:00,
2013-08-20 23:14:00,74.9,68.4,30.09,SSE,158,0.9,1.6,80,0.00,,,0.01,WUHU216HW,2013-08-21 03:14:00,
2013-08-20 23:19:00,74.9,68.4,30.09,West,270,0.7,1.1,80,0.00,,,0.01,WUHU216HW,2013-08-21 03:19:00,
2013-08-20 23:24:00,74.9,68.4,30.09,WSW,248,0.7,1.1,80,0.00,,,0.01,WUHU216HW,2013-08-21 03:24:00,
2013-08-20 23:29:00,74.9,68.4,30.09,WSW,248,2.5,2.5,80,0.00,,,0.01,WUHU216HW,2013-08-21 03:29:00,
2013-08-20 23:34:00,74.7,68.2,30.09,SSW,203,0.4,2.5,80,0.00,,,0.01,WUHU216HW,2013-08-21 03:34:00,
2013-08-20 23:39:00,74.7,68.2,30.09,South,180,0.0,1.3,80,0.00,,,0.01,WUHU216HW,2013-08-21 03:39:00,
2013-08-20 23:44:00,74.7,68.2,30.09,WSW,248,1.1,2.0,80,0.00,,,0.01,WUHU216HW,2013-08-21 03:44:00,
2013-08-20 23:49:00,74.5,68.0,30.09,SW,225,0.4,3.1,80,0.00,,,0.01,WUHU216HW,2013-08-21 03:49:00,
2013-08-20 23:54:00,74.5,68.0,30.09,WSW,248,0.9,3.1,80,0.00,,,0.01,WUHU216HW,2013-08-21 03:54:00,
2013-08-20 23:59:00,74.5,68.0,30.09,SW,225,2.2,2.2,80,0.00,,,0.01,WUHU216HW,2013-08-21 03:59:00,